Home   Weather   36°04'N, 120°22'E   Past weeks
Flag for China

Past Weather in 36°04'N, 120°22'E, China — Yesterday and Last 2 Weeks

Now
82 °F

Sunny.


Feels Like: 80 °F
Forecast: 79 / 62 °F
Wind: 15 mph from North

Location: Qingdao Airport

Current Time: May 21, 2019 at 5:47:34 pm

Latest Report: May 21, 2019 at 5:00 pm


Visibility: 10 mi

Pressure: 29.65 "Hg

Humidity: 16%

Dew Point: 32 °F

Location of 36°04'N, 120°22'ELocation

Past Weather in 36°04'N, 120°22'E — Graph

°F

36°04'N, 120°22'E Temperature Yesterday

Maximum temperature yesterday: 75 °F (at 3:00 pm)
Minimum temperature yesterday: 59 °F (at 5:00 am)
Average temperature yesterday: 67 °F

High & Low Weather Summary for the Past Weeks

 TemperatureHumidityPressure
High84 °F (May 21, 1:00 pm)94% (May 12, 1:00 am)30.12 "Hg (May 12, 1:00 am)
Low48 °F (May 7, 3:00 am)15% (May 7, 3:00 pm)29.65 "Hg (May 21, 3:00 pm)
Average66 °F61%29.86 "Hg
* Reported May 6 4:00 pm — May 21 4:00 pm, 36°04'N, 120°22'E. Weather by CustomWeather, © 2019

Note: Actual official high and low records may vary slightly from our data, if they occured in-between our weather recording intervals... More about our weather records

Advertising

36°04'N, 120°22'E Weather History for the Previous 24 Hours

Scroll right to see more
 ConditionsComfort  
Time TempWeatherWind HumidityBarometerVisibility
4:00 pm
Tue, May 21
84 °FPassing clouds.13 mph18%29.65 "HgN/A
3:00 pm84 °FPassing clouds.15 mph16%29.65 "HgN/A
2:00 pm84 °FPassing clouds.10 mph20%29.68 "HgN/A
1:00 pm84 °FPassing clouds.10 mph20%29.68 "HgN/A
12:00 pm82 °FSunny.8 mph21%29.71 "Hg10 mi
11:00 am81 °FPassing clouds.10 mph20%29.74 "HgN/A
10:00 am77 °FPassing clouds.10 mph28%29.77 "HgN/A
9:00 am73 °FPassing clouds.8 mph31%29.77 "HgN/A
8:00 am72 °FPassing clouds.6 mph33%29.77 "HgN/A
7:00 am68 °FSunny.3 mph43%29.77 "Hg10 mi
6:00 am61 °FSunny.3 mph59%29.80 "Hg10 mi
5:00 am54 °FSunny.No wind72%29.80 "Hg10 mi
4:00 am54 °FClear.1 mph72%29.80 "Hg10 mi
3:00 am54 °FClear.No wind67%29.80 "Hg10 mi
2:00 am59 °FClear.1 mph55%29.83 "Hg10 mi
1:00 am57 °FClear.3 mph55%29.83 "Hg10 mi
12:00 am59 °FClear.3 mph59%29.83 "Hg10 mi
11:00 pm
Mon, May 20
63 °FClear.3 mph56%29.83 "Hg10 mi
10:00 pm61 °FClear.1 mph42%29.83 "Hg10 mi
9:00 pm66 °FClear.3 mph32%29.83 "Hg10 mi
8:00 pm70 °FPassing clouds.3 mph27%29.83 "HgN/A
7:00 pm68 °FSunny.3 mph26%29.80 "Hg10 mi
6:00 pm73 °FPassing clouds.13 mph20%29.80 "HgN/A
5:00 pm73 °FPassing clouds.15 mph20%29.80 "HgN/A
Weather by CustomWeather, © 2019

See weather overview